Weather History for San Diego Brown, CA

Change the Weather History Date:

Monday, December 2, 2013

  Actual Average Record
Temperature  
Mean Temperature 62 °F -  
Max Temperature 75 °F 64 °F 85 °F (1959)
Min Temperature 48 °F 44 °F 42 °F (2006)
Degree Days  
Heating Degree Days 4    
Growing Degree Days 12 (Base 50)    
Moisture  
Dew Point 30 °F    
Average Humidity 33    
Maximum Humidity 48    
Minimum Humidity 14    
Precipitation  
Precipitation 0.00 in - - ()
Sea Level Pressure  
Sea Level Pressure 30.01 in    
Wind  
Wind Speed 5 mph (SSE)    
Max Wind Speed 10 mph    
Max Gust Speed -    
Visibility 10 miles    
Events      
Averages and records for this station are not official NWS values.
T = Trace of Precipitation, MM = Missing Value Source: NWS Daily Summary

Daily Weather History Graph

Daily Weather History Graph

Search for Another Location

Airport:

Trip Planner

Search our weather history database for the weather conditions in past years. The results will help you decide how hot, cold, wet, or windy it might be!

Date:

Astronomy

Dec. 02, 2013 Rise Set
Actual Time 6:32 AM PST 4:41 PM PST
Civil Twilight 6:06 AM PST 5:08 PM PST
Nautical Twilight 5:35 AM PST 5:39 PM PST
Astronomical Twilight 5:05 AM PST 6:08 PM PST
Moon 6:05 AM PST (12/2) 4:47 PM PST (12/2)
Length of Visible Light 11h 02m
Length of Day
10h 08m
Waning Crescent, 0% of the Moon is Illuminated
Dec 2
Waning Crescent
Dec 2
New
Dec 9
First Quarter
Dec 17
Full
Dec 25
Last Quarter

Hourly Weather History & Observations

Time (PST) Temp. Dew Point Humidity Pressure Visibility Wind Dir Wind Speed Gust Speed Precip Events Conditions
12:53 AM 59.0 °F 28.0 °F 31% 30.09 in 10.0 mi NNE 3.5 mph - N/A   Clear
1:53 AM 48.9 °F 30.0 °F 48% 30.08 in 10.0 mi ESE 8.1 mph - N/A   Clear
2:53 AM 53.1 °F 30.0 °F 41% 30.06 in 10.0 mi SE 4.6 mph - N/A   Clear
3:53 AM 54.0 °F 27.0 °F 35% 30.06 in 10.0 mi ESE 5.8 mph - N/A   Clear
4:53 AM 51.1 °F 27.0 °F 39% 30.06 in 10.0 mi SE 9.2 mph - N/A   Clear
5:53 AM 52.0 °F 25.0 °F 35% 30.07 in 10.0 mi ESE 9.2 mph - N/A   Clear
6:53 AM 51.1 °F 26.1 °F 38% 30.09 in 10.0 mi ESE 5.8 mph - N/A   Clear
7:53 AM 60.1 °F 24.1 °F 25% 30.08 in 10.0 mi SE 8.1 mph - N/A   Clear
8:53 AM 64.0 °F 24.1 °F 22% 30.09 in 10.0 mi SSE 6.9 mph - N/A   Clear
9:53 AM 66.9 °F 23.0 °F 19% 30.07 in 10.0 mi SSE 6.9 mph - N/A   Clear
10:53 AM 71.1 °F 23.0 °F 16% 30.05 in 10.0 mi SSE 4.6 mph - N/A   Clear
11:53 AM 75.0 °F 23.0 °F 14% 30.02 in 10.0 mi NW 3.5 mph - N/A   Clear
12:53 PM 75.0 °F 24.1 °F 15% 29.99 in 10.0 mi NW 3.5 mph - N/A   Clear
1:53 PM 73.9 °F 28.9 °F 19% 29.97 in 10.0 mi WNW 4.6 mph - N/A   Clear
2:53 PM 71.1 °F 30.0 °F 22% 29.96 in 10.0 mi West 10.4 mph - N/A   Clear
3:53 PM 69.1 °F 33.1 °F 26% 29.95 in 10.0 mi West 5.8 mph - N/A   Clear
4:53 PM 62.1 °F 39.0 °F 43% 29.95 in 10.0 mi SSW 6.9 mph - N/A   Clear
5:53 PM 63.0 °F 37.0 °F 38% 29.95 in 10.0 mi Calm Calm - N/A   Clear
6:53 PM 61.0 °F 37.9 °F 42% 29.96 in 10.0 mi Calm Calm - N/A   Clear
7:53 PM 60.1 °F 37.0 °F 42% 29.96 in 10.0 mi Calm Calm - N/A   Clear
8:53 PM 57.0 °F 37.0 °F 47% 29.94 in 10.0 mi SE 5.8 mph - N/A   Clear
9:53 PM 55.9 °F 35.1 °F 45% 29.93 in 10.0 mi ESE 5.8 mph - N/A   Clear
10:53 PM 57.9 °F 35.1 °F 42% 29.94 in 10.0 mi SSE 4.6 mph - N/A   Clear
11:53 PM 55.9 °F 33.1 °F 42% 29.93 in 9.0 mi South 3.5 mph - N/A   Clear